Regional Weather Roundup
Issued by NWS

Home | Current Version | Previous Version | Graphics & Text | Print | Product List | Glossary On
Versions: 1 2 3 4 5 6 7 8 9 10 11 12 13 14 15 16 17 18 19 20 21 22 23 24 25 26 27 28 29 30 31 32 33 34 35 36 37 38 39 40 41 42 43 44 45 46 47 48 49 50
000
ASUS43 KMPX 010201
RWRMN
WEATHER ROUNDUP FOR MINNESOTA
NATIONAL WEATHER SERVICE TWIN CITIES/CHANHASSEN MN
900 PM CDT MON AUG 31 2015


NOTE: "FAIR" INDICATES FEW OR NO CLOUDS BELOW 12,000 FEET WITH NO
SIGNIFICANT WEATHER AND/OR OBSTRUCTIONS TO VISIBILITY. N/A MEANS
CURRENT SKY AND/OR WEATHER CONDITIONS ARE NOT AVAILABLE.

MNZ060>063-068>070-010300-
   Twin Cities Metro

CITY           SKY/WX    TMP DP  RH WIND       PRES   REMARKS
TWIN CITIES    MOCLDY    80  70  71 S7        29.90R
ST PAUL        MOCLDY    75  71  87 S6        29.90R
CRYSTAL        PTCLDY    78  69  73 S5        29.88R
LAKEVILLE      PTCLDY    70  70 100 CALM      29.91R FOG
EDEN PRAIRIE   CLEAR     77  70  79 S8        29.89R
SOUTH ST PAUL  PTCLDY    78  70  77 CALM      29.90R
LAKE ELMO      FAIR      73  72  94 S5        29.92R
$$
MNZ001>005-007-008-013>017-022>024-027-028-010300-
   Northwest Minnesota

CITY           SKY/WX    TMP DP  RH WIND       PRES   REMARKS
BEMIDJI        CLOUDY    71  66  86 CALM      29.85R
HALLOCK        MOCLDY    66  52  59 W6        29.80R
ROSEAU         MOCLDY    66  63  88 S6        29.80S
WARROAD        CLOUDY    68  64  88 S3        29.80S
THIEF RVR FALL CLOUDY   N/A N/A N/A W7        29.83R
CROOKSTON      CLOUDY    70  55  60 W5        29.84R
FOSSTON        CLOUDY    64  63  94 S5        29.86R
DETROIT LAKES  CLOUDY    70  68  94 CALM      29.87R
MOORHEAD       CLOUDY    72  66  83 CALM      29.84R
PARK RAPIDS    CLOUDY    73  66  78 CALM      29.85F
MAHNOMEN       FAIR      70  64  81 SW3       29.85R
$$
MNZ006-009>011-018-025>026-010300-
   North Central Minnesota

CITY           SKY/WX    TMP DP  RH WIND       PRES   REMARKS
BAUDETTE       CLOUDY    66  63  90 S3        29.81R
FLAG ISLAND    MOCLDY    70  64  83 SW7       29.77S
INTL FALLS     CLOUDY    67  64  90 SW3       29.82R
WASKISH        CLOUDY    66  64  94 CALM      29.84R
BIG FORK       MOCLDY    68  64  88 CALM      29.85S
LONGVILLE      MOCLDY    70  70 100 CALM      29.86R
GRAND RAPIDS     N/A     72  66  83 CALM      29.86R
CRANE LAKE     MOCLDY    66  64  94 S1        29.84R
COOK           MOCLDY    75  66  73 SW3       29.85R
WALKER         FAIR      71  67  87 CALM      29.85R
$$
MNZ012-019>021-037-010300-
   Northeast Minnesota

CITY           SKY/WX    TMP DP  RH WIND       PRES   REMARKS
DULUTH         PTCLDY    73  69  87 SW6       29.89R
ELY            MOCLDY    73  64  73 SW6       29.86R
HIBBING        PTCLDY    74  67  78 VRB5      29.86R
EVELETH        MOCLDY    72  66  83 SW6       29.88R
DULUTH HARBOR  MOCLDY    75  72  88 SW5       29.86R
TWO HARBORS    PTCLDY    73  70  88 CALM      29.86R
SILVER BAY     PTCLDY    72  66  83 CALM      29.85S
GRAND MARAIS     N/A     57  56  96 W3        29.85R
G MARAIS ARPRT PTCLDY    66  63  88 S7        29.90R
$$
MNZ029>031-032-039>041-046>048-054>057-064-010300-
   West Central Minnesota

CITY           SKY/WX    TMP DP  RH WIND       PRES   REMARKS
FERGUS FALLS   CLOUDY    72  66  83 CALM      29.84R
WHEATON        CLOUDY    70  66  88 CALM      29.86R
MORRIS         MOCLDY    72  66  83 CALM      29.84R
ALEXANDRIA     PTCLDY    73  65  75 NE3       29.88R
ELBOW LAKE     FAIR      72  69  90 CALM      29.85R
WADENA         MOCLDY    70  64  83 CALM      29.84F
GLENWOOD       PTCLDY    75  68  78 N3        29.88R
APPLETON       PTCLDY    72  66  83 E5        29.83F
BENSON         PTCLDY    72  66  83 CALM      29.86R
ORTONVILLE     MOCLDY    73  66  78 NE2       29.84S
MADISON        PTCLDY    75  66  73 CALM      29.85R
WILLMAR        FAIR      75  68  78 CALM      29.88R
$$
MNZ033>034-036-042>043-049>051-058-059-010300-
   Central Minnesota

CITY           SKY/WX    TMP DP  RH WIND       PRES   REMARKS
ST CLOUD       CLEAR     72  69  90 S7        29.88R
SAUK CENTRE    FAIR      71  68  92 S6        29.87R
PAYNESVILLE    MOCLDY    75  66  74 SE6       29.88R
AITKIN         PTCLDY    75  68  78 S6        29.85S
PINE RIVER     MOCLDY    73  68  83 CALM      29.89R
BRAINERD       PTCLDY    74  68  81 S8        29.86R
STAPLES        PTCLDY    72  66  83 CALM      29.86S
LONG PRAIRIE   FAIR      72  68  88 S5        29.88R
LITTLE FALLS   PTCLDY    73  66  78 SE5       29.87R
LITCHFIELD     CLEAR     75  72  88 S5        29.89R
BUFFALO        CLEAR     75  67  77 S3        29.90R
MAPLE LAKE     CLEAR     73  70  88 CALM      29.90R
$$
MNZ037-044-045-052-053-010300-
   East Central Minnesota

CITY           SKY/WX    TMP DP  RH WIND       PRES   REMARKS
PRINCETON      CLEAR     75  70  83 S6        29.89R
MORA           PTCLDY    72  66  83 CALM      29.91R
CAMBRIDGE      CLEAR     77  64  65 S5        29.88R
RUSH CITY      PTCLDY    72  67  84 S3        29.89S
MOOSE LAKE     CLEAR     70  66  88 CALM      29.87R
HINCKLEY       CLOUDY    73  70  88 S5        29.90R
CLOQUET        MOCLDY    73  66  78 SW3       29.89R
MCGREGOR       CLOUDY    73  68  83 S5        29.88R
$$
MNZ071>073-080-081-089-090-097-098-010300-
   Southwest Minnesota

CITY           SKY/WX    TMP DP  RH WIND       PRES   REMARKS
MONTEVIDEO     PTCLDY    75  70  83 S6        29.87R
GRANITE FALLS  PTCLDY    73  70  91 SE6       29.88R
CANBY          PTCLDY    76  69  79 S5        29.87R
MARSHALL       PTCLDY    73  66  78 S7        29.89R
REDWOOD FALLS  CLEAR     73  68  84 S8        29.88R
OLIVIA         CLEAR     72  64  78 S6        29.88R
PIPESTONE      CLEAR     72  68  88 S6        29.91R
WINDOM         CLEAR     73  66  78 CALM      29.91S
WORTHINGTON    CLEAR     72  64  78 S7        29.92S
JACKSON        CLEAR     72  68  88 S6        29.94R
TRACY          CLEAR     74  69  84 S9        29.89R
SLAYTON        CLEAR     70  69  96 CALM      29.92R
$$
MNZ065>067-074>077-082>085-091>093-010300-
   South Central Minnesota

CITY           SKY/WX    TMP DP  RH WIND       PRES   REMARKS
MANKATO        MOCLDY    75  70  83 S6        29.91R
NEW ULM        CLEAR     72  68  88 S5        29.90R
ST JAMES       CLEAR     72  70  94 SE5       29.92S
FAIRMONT       CLEAR     72  63  73 S7        29.92R
GLENCOE        CLEAR     75  71  87 S3        29.90R
FARIBAULT      CLEAR     75  72  88 S3        29.93R
OWATONNA       CLEAR     75  70  83 S6        29.93R
WASECA         CLEAR     72  68  88 S3        29.94R FOG
ALBERT LEA     CLEAR     73  70  88 S5        29.94S
$$
MNZ078>079-086>088-094>096-010300-
   Southeast Minnesota

CITY           SKY/WX    TMP DP  RH WIND       PRES   REMARKS
ROCHESTER      CLEAR     74  71  91 S6        29.96R FOG
RED WING       CLEAR     79  72  78 S3        29.91R
STANTON        CLEAR     74  70  86 CALM      29.90S
DODGE CENTER   CLEAR     72  70  94 S7        29.95R
WINONA         CLEAR     73  70  88 CALM      29.95R
AUSTIN         PTCLDY    75  72  88 S3        29.95R
PRESTON        MOCLDY    74  70  88 S5        29.98R
$$
ABBREVIATIONS USED IN REMARKS
   TC - TEMPERATURES IN CELSIUS
  WCI - WIND CHILL INDEX
   HX - HEAT INDEX
  VSB - VISIBILITY
$$



USA.gov is the U.S. government's official web portal to all federal, state and local government web resources and services.